Time,TemperatureF,DewpointF,PressureIn,WindDirection,WindDirectionDegrees,WindSpeedMPH,WindSpeedGustMPH,Humidity,HourlyPrecipIn,Conditions,Clouds,dailyrainin,SoftwareType,DateUTC
2013-03-12 00:04:00,37.2,30.4,30.09,WNW,296,0.0,0.0,76,0.00,,---,0.00,VWS V13.01,2013-03-12 05:04:00,
2013-03-12 00:09:00,37.1,29.9,30.09,WNW,296,0.0,0.0,75,0.00,,---,0.00,VWS V13.01,2013-03-12 05:09:00,
2013-03-12 00:14:00,37.2,30.0,30.08,WNW,295,0.0,0.0,75,0.00,,---,0.00,VWS V13.01,2013-03-12 05:14:00,
2013-03-12 00:19:00,37.2,30.0,30.08,WNW,296,0.0,0.0,75,0.00,,---,0.00,VWS V13.01,2013-03-12 05:19:00,
2013-03-12 00:24:00,37.1,30.2,30.08,WNW,295,0.0,0.0,76,0.00,,---,0.00,VWS V13.01,2013-03-12 05:24:00,
2013-03-12 00:29:00,36.9,30.4,30.08,WNW,296,0.0,0.0,77,0.00,,---,0.00,VWS V13.01,2013-03-12 05:29:00,
2013-03-12 00:34:00,37.0,30.5,30.09,WNW,295,0.0,0.0,77,0.00,,---,0.00,VWS V13.01,2013-03-12 05:34:00,
2013-03-12 00:39:00,37.1,30.2,30.09,WNW,295,0.0,0.0,76,0.00,,---,0.00,VWS V13.01,2013-03-12 05:39:00,
2013-03-12 00:44:00,37.1,30.2,30.09,WNW,296,0.0,0.0,76,0.00,,---,0.00,VWS V13.01,2013-03-12 05:44:00,
2013-03-12 00:49:00,37.0,30.5,30.08,WNW,295,0.0,0.0,77,0.00,,---,0.00,VWS V13.01,2013-03-12 05:49:00,
2013-03-12 00:54:00,37.0,30.5,30.08,WNW,295,0.0,0.0,77,0.00,,---,0.00,VWS V13.01,2013-03-12 05:54:00,
2013-03-12 00:59:00,37.2,29.4,30.08,WNW,295,0.0,0.0,73,0.00,,---,0.00,VWS V13.01,2013-03-12 05:59:00,
2013-03-12 01:04:00,37.1,29.3,30.08,WNW,296,0.0,0.0,73,0.00,,---,0.00,VWS V13.01,2013-03-12 06:04:00,
2013-03-12 01:09:00,37.0,29.5,30.07,WNW,295,0.0,0.0,74,0.00,,---,0.00,VWS V13.01,2013-03-12 06:09:00,
2013-03-12 01:14:00,36.9,29.1,30.07,WNW,296,0.0,0.0,73,0.00,,---,0.00,VWS V13.01,2013-03-12 06:14:00,
2013-03-12 01:19:00,37.0,29.2,30.07,WNW,296,0.0,0.0,73,0.00,,---,0.00,VWS V13.01,2013-03-12 06:19:00,
2013-03-12 01:24:00,36.9,29.1,30.07,WNW,296,0.0,0.0,73,0.00,,---,0.00,VWS V13.01,2013-03-12 06:24:00,
2013-03-12 01:29:00,36.8,29.3,30.07,WNW,296,0.0,0.0,74,0.00,,---,0.00,VWS V13.01,2013-03-12 06:29:00,
2013-03-12 01:34:00,36.8,29.0,30.07,WNW,296,0.0,0.0,73,0.00,,---,0.00,VWS V13.01,2013-03-12 06:34:00,
2013-03-12 01:39:00,36.5,29.3,30.07,WNW,296,0.0,0.0,75,0.00,,---,0.00,VWS V13.01,2013-03-12 06:39:00,
2013-03-12 01:44:00,36.5,29.7,30.08,WNW,296,0.0,0.0,76,0.00,,---,0.00,VWS V13.01,2013-03-12 06:44:00,
2013-03-12 01:49:00,36.4,29.2,30.09,WNW,295,0.0,0.0,75,0.00,,---,0.00,VWS V13.01,2013-03-12 06:49:00,
2013-03-12 01:55:00,36.4,29.2,30.09,WNW,296,0.0,0.0,75,0.00,,---,0.00,VWS V13.01,2013-03-12 06:55:00,
2013-03-12 02:00:00,36.3,29.1,30.09,WNW,296,0.0,0.0,75,0.00,,---,0.00,VWS V13.01,2013-03-12 07:00:00,
2013-03-12 02:05:00,36.3,28.8,30.09,WNW,296,0.0,0.0,74,0.00,,---,0.00,VWS V13.01,2013-03-12 07:05:00,
2013-03-12 02:10:00,36.2,28.7,30.09,WNW,295,0.0,0.0,74,0.00,,---,0.00,VWS V13.01,2013-03-12 07:10:00,
2013-03-12 02:15:00,36.0,29.2,30.09,WNW,295,0.0,0.0,76,0.00,,---,0.00,VWS V13.01,2013-03-12 07:15:00,
2013-03-12 02:20:00,35.7,29.2,30.09,WNW,296,0.0,0.0,77,0.00,,---,0.00,VWS V13.01,2013-03-12 07:20:00,
2013-03-12 02:25:00,35.5,29.0,30.09,WNW,296,0.0,0.0,77,0.00,,---,0.00,VWS V13.01,2013-03-12 07:25:00,
2013-03-12 02:30:00,35.4,28.9,30.10,WNW,296,0.0,0.0,77,0.00,,---,0.00,VWS V13.01,2013-03-12 07:30:00,
2013-03-12 02:35:00,35.3,28.8,30.09,WNW,295,0.0,0.0,77,0.00,,---,0.00,VWS V13.01,2013-03-12 07:35:00,
2013-03-12 02:40:00,35.3,28.8,30.09,WNW,296,0.0,0.0,77,0.00,,---,0.00,VWS V13.01,2013-03-12 07:40:00,
2013-03-12 02:45:00,35.3,28.8,30.09,WNW,296,0.0,0.0,77,0.00,,---,0.00,VWS V13.01,2013-03-12 07:45:00,
2013-03-12 02:51:00,35.2,28.7,30.09,WNW,296,0.0,0.0,77,0.00,,---,0.00,VWS V13.01,2013-03-12 07:51:00,
2013-03-12 02:56:00,35.2,28.7,30.09,WNW,295,0.0,0.0,77,0.00,,---,0.00,VWS V13.01,2013-03-12 07:56:00,
2013-03-12 03:01:00,35.1,28.6,30.10,WNW,296,0.0,0.0,77,0.00,,---,0.00,VWS V13.01,2013-03-12 08:01:00,
2013-03-12 03:06:00,35.0,28.5,30.09,WNW,296,0.0,0.0,77,0.00,,---,0.00,VWS V13.01,2013-03-12 08:06:00,
2013-03-12 03:12:00,35.0,28.5,30.10,WNW,295,0.0,0.0,77,0.00,,---,0.00,VWS V13.01,2013-03-12 08:12:00,
2013-03-12 03:17:00,34.9,28.4,30.09,WNW,296,0.0,0.0,77,0.00,,---,0.00,VWS V13.01,2013-03-12 08:17:00,
2013-03-12 03:22:00,34.8,28.3,30.10,WNW,296,0.0,1.0,77,0.00,,---,0.00,VWS V13.01,2013-03-12 08:22:00,
2013-03-12 03:27:00,34.8,28.3,30.09,WNW,296,0.0,1.0,77,0.00,,---,0.00,VWS V13.01,2013-03-12 08:27:00,
2013-03-12 03:32:00,34.8,28.3,30.09,WNW,296,0.0,1.0,77,0.00,,---,0.00,VWS V13.01,2013-03-12 08:32:00,
2013-03-12 03:37:00,34.8,28.3,30.09,WNW,296,0.0,0.0,77,0.00,,---,0.00,VWS V13.01,2013-03-12 08:37:00,
2013-03-12 03:42:00,34.7,28.2,30.08,WNW,296,0.0,0.0,77,0.00,,---,0.00,VWS V13.01,2013-03-12 08:42:00,
2013-03-12 03:47:00,34.7,28.5,30.09,WNW,296,0.0,0.0,78,0.00,,---,0.00,VWS V13.01,2013-03-12 08:47:00,
2013-03-12 03:52:00,34.7,28.5,30.09,WNW,296,0.0,0.0,78,0.00,,---,0.00,VWS V13.01,2013-03-12 08:52:00,
2013-03-12 03:57:00,34.7,28.5,30.09,WNW,296,0.0,1.0,78,0.00,,---,0.00,VWS V13.01,2013-03-12 08:57:00,
2013-03-12 04:02:00,34.6,28.8,30.09,WNW,295,0.0,1.0,79,0.00,,---,0.00,VWS V13.01,2013-03-12 09:02:00,
2013-03-12 04:08:00,34.4,28.6,30.09,WNW,296,0.0,0.0,79,0.00,,---,0.00,VWS V13.01,2013-03-12 09:08:00,
2013-03-12 04:13:00,34.4,28.6,30.09,WNW,296,0.0,0.0,79,0.00,,---,0.00,VWS V13.01,2013-03-12 09:13:00,
2013-03-12 04:18:00,34.4,28.6,30.09,WNW,295,0.0,0.0,79,0.00,,---,0.00,VWS V13.01,2013-03-12 09:18:00,
2013-03-12 04:23:00,34.3,28.8,30.10,WNW,296,0.0,0.0,80,0.00,,---,0.00,VWS V13.01,2013-03-12 09:23:00,
2013-03-12 04:28:00,34.4,28.9,30.10,WNW,296,0.0,0.0,80,0.00,,---,0.00,VWS V13.01,2013-03-12 09:28:00,
2013-03-12 04:33:00,34.4,29.2,30.09,WNW,296,0.0,0.0,81,0.00,,---,0.00,VWS V13.01,2013-03-12 09:33:00,
2013-03-12 04:38:00,34.4,29.2,30.08,WNW,295,0.0,0.0,81,0.00,,---,0.00,VWS V13.01,2013-03-12 09:38:00,
2013-03-12 04:43:00,34.4,29.5,30.08,WNW,296,0.0,0.0,82,0.00,,---,0.00,VWS V13.01,2013-03-12 09:43:00,
2013-03-12 04:48:00,34.4,29.5,30.08,WNW,296,0.0,0.0,82,0.00,,---,0.00,VWS V13.01,2013-03-12 09:48:00,
2013-03-12 04:53:00,34.4,29.8,30.08,WNW,296,0.0,0.0,83,0.00,,---,0.00,VWS V13.01,2013-03-12 09:53:00,
2013-03-12 04:58:00,34.3,29.4,30.09,WNW,296,0.0,0.0,82,0.00,,---,0.00,VWS V13.01,2013-03-12 09:58:00,
2013-03-12 05:04:00,34.1,29.2,30.10,WNW,296,0.0,0.0,82,0.00,,---,0.00,VWS V13.01,2013-03-12 10:04:00,
2013-03-12 05:09:00,34.0,29.4,30.11,WNW,296,0.0,0.0,83,0.00,,---,0.00,VWS V13.01,2013-03-12 10:09:00,
2013-03-12 05:14:00,33.9,29.3,30.11,WNW,296,0.0,0.0,83,0.00,,---,0.00,VWS V13.01,2013-03-12 10:14:00,
2013-03-12 05:19:00,33.9,29.3,30.11,WNW,296,0.0,0.0,83,0.00,,---,0.00,VWS V13.01,2013-03-12 10:19:00,
2013-03-12 05:24:00,33.9,29.6,30.12,NW,309,0.0,1.0,84,0.00,,---,0.00,VWS V13.01,2013-03-12 10:24:00,
2013-03-12 05:29:00,33.9,29.6,30.11,NW,309,0.0,1.0,84,0.00,,---,0.00,VWS V13.01,2013-03-12 10:29:00,
2013-03-12 05:34:00,34.1,29.8,30.12,NW,309,0.0,1.0,84,0.00,,---,0.00,VWS V13.01,2013-03-12 10:34:00,
2013-03-12 05:39:00,34.1,30.1,30.12,NW,309,0.0,0.0,85,0.00,,---,0.00,VWS V13.01,2013-03-12 10:39:00,
2013-03-12 05:44:00,34.2,30.2,30.13,NW,309,0.0,0.0,85,0.00,,---,0.00,VWS V13.01,2013-03-12 10:44:00,
2013-03-12 05:49:00,34.4,30.4,30.13,NW,309,0.0,3.0,85,0.00,,---,0.00,VWS V13.01,2013-03-12 10:49:00,
2013-03-12 05:54:00,34.4,30.6,30.13,NW,309,0.0,3.0,86,0.00,,---,0.00,VWS V13.01,2013-03-12 10:54:00,
2013-03-12 05:59:00,34.4,30.6,30.13,NW,309,0.0,3.0,86,0.00,,---,0.00,VWS V13.01,2013-03-12 10:59:00,
2013-03-12 06:04:00,34.4,30.6,30.13,NW,309,0.0,3.0,86,0.00,,---,0.00,VWS V13.01,2013-03-12 11:04:00,
2013-03-12 06:09:00,34.4,30.6,30.15,NW,309,0.0,0.0,86,0.00,,---,0.00,VWS V13.01,2013-03-12 11:09:00,
2013-03-12 06:14:00,34.4,30.6,30.14,NW,309,0.0,0.0,86,0.00,,---,0.00,VWS V13.01,2013-03-12 11:14:00,
2013-03-12 06:19:00,34.4,30.6,30.15,NW,309,0.0,0.0,86,0.00,,---,0.00,VWS V13.01,2013-03-12 11:19:00,
2013-03-12 06:24:00,34.5,30.8,30.15,NW,309,0.0,0.0,86,0.00,,---,0.00,VWS V13.01,2013-03-12 11:24:00,
2013-03-12 06:30:00,34.4,30.6,30.16,NW,309,0.0,0.0,86,0.00,,---,0.00,VWS V13.01,2013-03-12 11:30:00,
2013-03-12 06:35:00,34.4,30.9,30.16,NW,313,0.0,4.0,87,0.00,,---,0.00,VWS V13.01,2013-03-12 11:35:00,
2013-03-12 06:40:00,34.4,30.9,30.17,NW,326,0.0,2.0,87,0.00,,---,0.00,VWS V13.01,2013-03-12 11:40:00,
2013-03-12 06:45:00,34.4,30.9,30.17,NW,317,0.0,5.0,87,0.00,,---,0.00,VWS V13.01,2013-03-12 11:45:00,
2013-03-12 06:50:00,34.4,30.9,30.17,NW,317,0.0,5.0,87,0.00,,---,0.00,VWS V13.01,2013-03-12 11:50:00,
2013-03-12 06:55:00,34.4,30.9,30.17,NW,313,0.0,5.0,87,0.00,,---,0.00,VWS V13.01,2013-03-12 11:55:00,
2013-03-12 07:00:00,34.4,30.9,30.17,NW,314,0.0,5.0,87,0.00,,---,0.00,VWS V13.01,2013-03-12 12:00:00,
2013-03-12 07:05:00,34.4,30.9,30.16,NW,314,0.0,5.0,87,0.00,,---,0.00,VWS V13.01,2013-03-12 12:05:00,
2013-03-12 07:10:00,34.4,31.2,30.17,NW,313,0.0,6.0,88,0.00,,---,0.00,VWS V13.01,2013-03-12 12:10:00,
2013-03-12 07:15:00,34.4,31.2,30.18,NW,313,0.0,6.0,88,0.00,,---,0.00,VWS V13.01,2013-03-12 12:15:00,
2013-03-12 07:20:00,34.4,31.2,30.18,North,360,0.0,6.0,88,0.00,,---,0.00,VWS V13.01,2013-03-12 12:20:00,
2013-03-12 07:25:00,34.4,31.2,30.17,NW,307,0.0,6.0,88,0.00,,---,0.00,VWS V13.01,2013-03-12 12:25:00,
2013-03-12 07:30:00,34.4,31.2,30.18,NW,317,0.0,6.0,88,0.00,,---,0.00,VWS V13.01,2013-03-12 12:30:00,
2013-03-12 07:35:00,34.4,31.2,30.18,NW,313,0.0,6.0,88,0.00,,---,0.00,VWS V13.01,2013-03-12 12:35:00,
2013-03-12 07:40:00,34.4,31.2,30.19,WNW,291,0.0,3.0,88,0.00,,---,0.00,VWS V13.01,2013-03-12 12:40:00,
2013-03-12 07:45:00,34.4,31.2,30.19,West,280,0.0,4.0,88,0.00,,---,0.00,VWS V13.01,2013-03-12 12:45:00,
2013-03-12 07:50:00,34.4,31.2,30.19,NW,315,0.0,4.0,88,0.00,,---,0.00,VWS V13.01,2013-03-12 12:50:00,
2013-03-12 07:55:00,34.4,31.2,30.19,NW,314,0.0,4.0,88,0.00,,---,0.00,VWS V13.01,2013-03-12 12:55:00,
2013-03-12 08:00:00,34.4,31.2,30.20,NW,314,0.0,4.0,88,0.00,,---,0.00,VWS V13.01,2013-03-12 13:00:00,
2013-03-12 08:05:00,34.4,31.2,30.20,NW,326,0.0,6.0,88,0.00,,---,0.00,VWS V13.01,2013-03-12 13:05:00,
2013-03-12 08:10:00,34.5,31.3,30.20,West,268,0.0,3.0,88,0.00,,---,0.00,VWS V13.01,2013-03-12 13:10:00,
2013-03-12 08:16:00,34.7,31.2,30.20,NNW,331,0.0,5.0,87,0.00,,---,0.00,VWS V13.01,2013-03-12 13:16:00,
2013-03-12 08:21:00,34.9,31.4,30.20,NW,318,0.0,6.0,87,0.00,,---,0.00,VWS V13.01,2013-03-12 13:21:00,
2013-03-12 08:26:00,35.1,31.3,30.20,NW,314,0.0,6.0,86,0.00,,---,0.00,VWS V13.01,2013-03-12 13:26:00,
2013-03-12 08:31:00,35.3,31.5,30.21,NW,319,0.0,6.0,86,0.00,,---,0.00,VWS V13.01,2013-03-12 13:31:00,
2013-03-12 08:36:00,35.5,31.7,30.21,NW,313,1.0,1.0,86,0.00,,---,0.00,VWS V13.01,2013-03-12 13:36:00,
2013-03-12 08:42:00,35.8,31.7,30.21,NW,310,1.0,3.0,85,0.00,,---,0.00,VWS V13.01,2013-03-12 13:42:00,
2013-03-12 08:47:00,36.3,32.2,30.20,NW,315,0.0,5.0,85,0.00,,---,0.00,VWS V13.01,2013-03-12 13:47:00,
2013-03-12 08:52:00,36.6,32.2,30.20,NW,310,2.0,5.0,84,0.00,,---,0.00,VWS V13.01,2013-03-12 13:52:00,
2013-03-12 08:57:00,36.8,32.1,30.20,NW,309,0.0,5.0,83,0.00,,---,0.00,VWS V13.01,2013-03-12 13:57:00,
2013-03-12 09:02:00,36.9,31.9,30.20,NW,309,0.0,5.0,82,0.00,,---,0.00,VWS V13.01,2013-03-12 14:02:00,
2013-03-12 09:07:00,37.2,32.2,30.20,NW,308,0.0,0.0,82,0.00,,---,0.00,VWS V13.01,2013-03-12 14:07:00,
2013-03-12 09:12:00,37.6,32.0,30.20,WNW,293,0.0,4.0,80,0.00,,---,0.00,VWS V13.01,2013-03-12 14:12:00,
2013-03-12 09:17:00,38.1,31.9,30.20,NW,306,0.0,4.0,78,0.00,,---,0.00,VWS V13.01,2013-03-12 14:17:00,
2013-03-12 09:22:00,38.8,31.9,30.20,NW,309,0.0,5.0,76,0.00,,---,0.00,VWS V13.01,2013-03-12 14:22:00,
2013-03-12 09:27:00,39.3,32.0,30.21,WNW,302,0.0,5.0,75,0.00,,---,0.00,VWS V13.01,2013-03-12 14:27:00,
2013-03-12 09:32:00,39.7,31.8,30.21,NW,308,0.0,5.0,73,0.00,,---,0.00,VWS V13.01,2013-03-12 14:32:00,
2013-03-12 09:37:00,40.5,32.2,30.21,NW,317,0.0,2.0,72,0.00,,---,0.00,VWS V13.01,2013-03-12 14:37:00,
2013-03-12 09:43:00,40.7,32.0,30.21,NW,323,0.0,2.0,71,0.00,,---,0.00,VWS V13.01,2013-03-12 14:43:00,
2013-03-12 09:48:00,40.8,31.4,30.22,NNW,342,2.0,2.0,69,0.00,,---,0.00,VWS V13.01,2013-03-12 14:48:00,
2013-03-12 09:53:00,41.0,31.6,30.22,NW,305,0.0,5.0,69,0.00,,---,0.00,VWS V13.01,2013-03-12 14:53:00,
2013-03-12 09:58:00,41.1,31.7,30.23,NW,315,2.0,5.0,69,0.00,,---,0.00,VWS V13.01,2013-03-12 14:58:00,
2013-03-12 10:03:00,41.5,32.1,30.23,NW,316,0.0,5.0,69,0.00,,---,0.00,VWS V13.01,2013-03-12 15:03:00,
2013-03-12 10:08:00,41.9,32.5,30.23,NNW,332,4.0,11.0,69,0.00,,---,0.00,VWS V13.01,2013-03-12 15:08:00,
2013-03-12 10:13:00,42.5,34.1,30.24,NNW,330,0.0,11.0,72,0.00,,---,0.00,VWS V13.01,2013-03-12 15:13:00,
2013-03-12 10:18:00,43.1,33.3,30.23,WNW,301,3.0,11.0,68,0.00,,---,0.00,VWS V13.01,2013-03-12 15:18:00,
2013-03-12 10:23:00,44.2,33.2,30.23,NNW,336,2.0,11.0,65,0.00,,---,0.00,VWS V13.01,2013-03-12 15:23:00,
2013-03-12 10:28:00,44.5,31.9,30.23,NW,311,2.0,11.0,61,0.00,,---,0.00,VWS V13.01,2013-03-12 15:28:00,
2013-03-12 10:33:00,45.0,32.0,30.24,NW,309,1.0,11.0,60,0.00,,---,0.00,VWS V13.01,2013-03-12 15:33:00,
2013-03-12 10:38:00,45.3,32.7,30.24,NW,309,0.0,6.0,61,0.00,,---,0.00,VWS V13.01,2013-03-12 15:38:00,
2013-03-12 10:43:00,45.3,32.2,30.24,NW,318,2.0,6.0,60,0.00,,---,0.00,VWS V13.01,2013-03-12 15:43:00,
2013-03-12 10:48:00,45.6,32.1,30.24,NNW,329,2.0,7.0,59,0.00,,---,0.00,VWS V13.01,2013-03-12 15:48:00,
2013-03-12 10:53:00,46.1,32.6,30.24,NNW,333,1.0,7.0,59,0.00,,---,0.00,VWS V13.01,2013-03-12 15:53:00,
2013-03-12 10:58:00,46.9,32.0,30.24,NW,323,6.0,7.0,56,0.00,,---,0.00,VWS V13.01,2013-03-12 15:58:00,
2013-03-12 11:04:00,46.8,31.0,30.24,NW,310,2.0,7.0,54,0.00,,---,0.00,VWS V13.01,2013-03-12 16:04:00,
2013-03-12 11:09:00,47.0,31.2,30.24,WNW,287,0.0,2.0,54,0.00,,---,0.00,VWS V13.01,2013-03-12 16:09:00,
2013-03-12 11:14:00,47.3,32.8,30.24,NW,304,0.0,5.0,57,0.00,,---,0.00,VWS V13.01,2013-03-12 16:14:00,
2013-03-12 11:19:00,48.0,33.1,30.23,NW,322,1.0,6.0,56,0.00,,---,0.00,VWS V13.01,2013-03-12 16:19:00,
2013-03-12 11:24:00,48.1,30.4,30.23,WNW,285,0.0,9.0,50,0.00,,---,0.00,VWS V13.01,2013-03-12 16:24:00,
2013-03-12 11:29:00,48.7,31.9,30.23,NW,310,2.0,9.0,52,0.00,,---,0.00,VWS V13.01,2013-03-12 16:29:00,
2013-03-12 11:34:00,49.1,31.3,30.23,WNW,288,0.0,9.0,50,0.00,,---,0.00,VWS V13.01,2013-03-12 16:34:00,
2013-03-12 11:39:00,49.4,32.5,30.23,NW,319,0.0,1.0,52,0.00,,---,0.00,VWS V13.01,2013-03-12 16:39:00,
2013-03-12 11:44:00,49.6,32.2,30.23,WNW,294,0.0,4.0,51,0.00,,---,0.00,VWS V13.01,2013-03-12 16:44:00,
2013-03-12 11:49:00,49.7,31.8,30.23,West,281,1.0,5.0,50,0.00,,---,0.00,VWS V13.01,2013-03-12 16:49:00,
2013-03-12 11:54:00,50.5,32.1,30.24,West,281,0.0,5.0,49,0.00,,---,0.00,VWS V13.01,2013-03-12 16:54:00,
2013-03-12 11:59:00,51.2,32.7,30.24,NNW,334,0.0,6.0,49,0.00,,---,0.00,VWS V13.01,2013-03-12 16:59:00,
2013-03-12 12:04:00,51.4,30.8,30.23,NW,305,0.0,6.0,45,0.00,,---,0.00,VWS V13.01,2013-03-12 17:04:00,
2013-03-12 12:10:00,51.9,31.8,30.24,NW,321,0.0,5.0,46,0.00,,---,0.00,VWS V13.01,2013-03-12 17:10:00,
2013-03-12 12:15:00,52.2,31.5,30.23,NW,326,0.0,9.0,45,0.00,,---,0.00,VWS V13.01,2013-03-12 17:15:00,
2013-03-12 12:20:00,53.6,34.4,30.23,WNW,290,0.0,9.0,48,0.00,,---,0.00,VWS V13.01,2013-03-12 17:20:00,
2013-03-12 12:25:00,54.0,33.7,30.23,NNW,338,2.0,9.0,46,0.00,,---,0.00,VWS V13.01,2013-03-12 17:25:00,
2013-03-12 12:30:00,54.1,34.3,30.23,WNW,286,0.0,9.0,47,0.00,,---,0.00,VWS V13.01,2013-03-12 17:30:00,
2013-03-12 12:35:00,53.9,33.6,30.23,WNW,296,2.0,9.0,46,0.00,,---,0.00,VWS V13.01,2013-03-12 17:35:00,
2013-03-12 12:40:00,54.1,33.8,30.23,NW,326,0.0,7.0,46,0.00,,---,0.00,VWS V13.01,2013-03-12 17:40:00,
2013-03-12 12:45:00,54.8,36.5,30.22,NNW,327,0.0,7.0,50,0.00,,---,0.00,VWS V13.01,2013-03-12 17:45:00,
2013-03-12 12:50:00,55.0,34.6,30.22,West,271,5.0,7.0,46,0.00,,---,0.00,VWS V13.01,2013-03-12 17:50:00,
2013-03-12 12:55:00,55.0,34.6,30.22,NW,311,0.0,10.0,46,0.00,,---,0.00,VWS V13.01,2013-03-12 17:55:00,
2013-03-12 13:00:00,55.0,35.2,30.22,NNW,348,4.0,10.0,47,0.00,,---,0.00,VWS V13.01,2013-03-12 18:00:00,
2013-03-12 13:05:00,56.0,37.1,30.21,WNW,298,0.0,10.0,49,0.00,,---,0.00,VWS V13.01,2013-03-12 18:05:00,
2013-03-12 13:10:00,56.0,38.2,30.21,WSW,250,0.0,7.0,51,0.00,,---,0.00,VWS V13.01,2013-03-12 18:10:00,
2013-03-12 13:15:00,56.5,37.6,30.21,NW,314,4.0,10.0,49,0.00,,---,0.00,VWS V13.01,2013-03-12 18:15:00,
2013-03-12 13:20:00,57.0,39.6,30.21,WNW,297,0.0,10.0,52,0.00,,---,0.00,VWS V13.01,2013-03-12 18:20:00,
2013-03-12 13:25:00,56.5,36.5,30.21,West,281,3.0,10.0,47,0.00,,---,0.00,VWS V13.01,2013-03-12 18:25:00,
2013-03-12 13:30:00,56.4,37.0,30.20,NNW,338,0.0,10.0,48,0.00,,---,0.00,VWS V13.01,2013-03-12 18:30:00,
2013-03-12 13:36:00,56.7,38.3,30.20,NW,304,7.0,10.0,50,0.00,,---,0.00,VWS V13.01,2013-03-12 18:36:00,
2013-03-12 13:41:00,56.5,36.5,30.21,NNW,329,0.0,7.0,47,0.00,,---,0.00,VWS V13.01,2013-03-12 18:41:00,
2013-03-12 13:46:00,57.3,39.3,30.20,NNW,346,2.0,7.0,51,0.00,,---,0.00,VWS V13.01,2013-03-12 18:46:00,
2013-03-12 13:51:00,57.7,39.2,30.20,NNE,21,0.0,9.0,50,0.00,,---,0.00,VWS V13.01,2013-03-12 18:51:00,
2013-03-12 13:56:00,58.5,37.8,30.19,NW,312,2.0,9.0,46,0.00,,---,0.00,VWS V13.01,2013-03-12 18:56:00,
2013-03-12 14:02:00,58.4,39.8,30.19,NW,319,0.0,9.0,50,0.00,,---,0.00,VWS V13.01,2013-03-12 19:02:00,
2013-03-12 14:07:00,58.1,39.1,30.19,WNW,303,0.0,5.0,49,0.00,,---,0.00,VWS V13.01,2013-03-12 19:07:00,
2013-03-12 14:12:00,58.2,38.1,30.19,NNW,338,0.0,10.0,47,0.00,,---,0.00,VWS V13.01,2013-03-12 19:12:00,
2013-03-12 14:17:00,58.7,40.6,30.18,NW,319,4.0,10.0,51,0.00,,---,0.00,VWS V13.01,2013-03-12 19:17:00,
2013-03-12 14:22:00,58.3,38.7,30.18,North,5,1.0,10.0,48,0.00,,---,0.00,VWS V13.01,2013-03-12 19:22:00,
2013-03-12 14:27:00,59.1,41.0,30.18,WNW,288,4.0,10.0,51,0.00,,---,0.00,VWS V13.01,2013-03-12 19:27:00,
2013-03-12 14:32:00,59.7,40.5,30.18,SW,230,0.0,10.0,49,0.00,,---,0.00,VWS V13.01,2013-03-12 19:32:00,
2013-03-12 14:37:00,59.6,39.4,30.17,NNW,329,3.0,6.0,47,0.00,,---,0.00,VWS V13.01,2013-03-12 19:37:00,
2013-03-12 14:42:00,59.0,38.8,30.17,NNE,23,8.0,10.0,47,0.00,,---,0.00,VWS V13.01,2013-03-12 19:42:00,
2013-03-12 14:47:00,59.4,40.8,30.17,NNW,345,5.0,10.0,50,0.00,,---,0.00,VWS V13.01,2013-03-12 19:47:00,
2013-03-12 14:52:00,59.0,38.8,30.17,NNW,331,0.0,10.0,47,0.00,,---,0.00,VWS V13.01,2013-03-12 19:52:00,
2013-03-12 14:57:00,59.4,40.2,30.17,NNW,336,3.0,10.0,49,0.00,,---,0.00,VWS V13.01,2013-03-12 19:57:00,
2013-03-12 15:02:00,59.3,39.6,30.17,West,265,0.0,11.0,48,0.00,,---,0.00,VWS V13.01,2013-03-12 20:02:00,
2013-03-12 15:07:00,59.5,39.8,30.16,West,259,0.0,8.0,48,0.00,,---,0.00,VWS V13.01,2013-03-12 20:07:00,
2013-03-12 15:12:00,59.8,40.1,30.16,West,269,1.0,11.0,48,0.00,,---,0.00,VWS V13.01,2013-03-12 20:12:00,
2013-03-12 15:17:00,60.3,40.5,30.16,NW,320,3.0,12.0,48,0.00,,---,0.00,VWS V13.01,2013-03-12 20:17:00,
2013-03-12 15:22:00,60.0,40.8,30.16,NW,319,0.0,12.0,49,0.00,,---,0.00,VWS V13.01,2013-03-12 20:22:00,
2013-03-12 15:27:00,60.1,40.9,30.16,West,265,3.0,12.0,49,0.00,,---,0.00,VWS V13.01,2013-03-12 20:27:00,
2013-03-12 15:33:00,59.9,40.7,30.16,WSW,252,0.0,12.0,49,0.00,,---,0.00,VWS V13.01,2013-03-12 20:33:00,
2013-03-12 15:38:00,58.9,40.3,30.16,SW,221,2.0,6.0,50,0.00,,---,0.00,VWS V13.01,2013-03-12 20:38:00,
2013-03-12 15:43:00,58.8,40.2,30.16,NW,319,0.0,7.0,50,0.00,,---,0.00,VWS V13.01,2013-03-12 20:43:00,
2013-03-12 15:48:00,59.0,40.9,30.16,WSW,252,3.0,12.0,51,0.00,,---,0.00,VWS V13.01,2013-03-12 20:48:00,
2013-03-12 15:53:00,59.0,40.9,30.16,WNW,296,0.0,12.0,51,0.00,,---,0.00,VWS V13.01,2013-03-12 20:53:00,
2013-03-12 15:58:00,58.5,39.9,30.16,WNW,299,0.0,12.0,50,0.00,,---,0.00,VWS V13.01,2013-03-12 20:58:00,
2013-03-12 16:03:00,57.8,39.8,30.16,NW,322,0.0,12.0,51,0.00,,---,0.00,VWS V13.01,2013-03-12 21:03:00,
2013-03-12 16:08:00,57.5,40.5,30.16,NNW,342,0.0,3.0,53,0.00,,---,0.00,VWS V13.01,2013-03-12 21:08:00,
2013-03-12 16:13:00,58.2,40.2,30.16,NW,317,0.0,10.0,51,0.00,,---,0.00,VWS V13.01,2013-03-12 21:13:00,
2013-03-12 16:18:00,59.0,41.4,30.16,NNW,333,3.0,10.0,52,0.00,,---,0.00,VWS V13.01,2013-03-12 21:18:00,
2013-03-12 16:23:00,59.2,40.1,30.16,WNW,294,0.0,11.0,49,0.00,,---,0.00,VWS V13.01,2013-03-12 21:23:00,
2013-03-12 16:28:00,59.0,40.4,30.16,West,265,0.0,11.0,50,0.00,,---,0.00,VWS V13.01,2013-03-12 21:28:00,
2013-03-12 16:33:00,59.6,41.5,30.16,NNW,345,9.0,19.0,51,0.00,,---,0.00,VWS V13.01,2013-03-12 21:33:00,
2013-03-12 16:38:00,59.9,41.2,30.16,NW,309,0.0,9.0,50,0.00,,---,0.00,VWS V13.01,2013-03-12 21:38:00,
2013-03-12 16:44:00,60.1,41.4,30.16,NNW,330,2.0,9.0,50,0.00,,---,0.00,VWS V13.01,2013-03-12 21:44:00,
2013-03-12 16:49:00,59.0,40.9,30.16,West,279,0.0,10.0,51,0.00,,---,0.00,VWS V13.01,2013-03-12 21:49:00,
2013-03-12 16:54:00,59.0,40.9,30.16,NNW,329,10.0,15.0,51,0.00,,---,0.00,VWS V13.01,2013-03-12 21:54:00,
2013-03-12 16:59:00,59.0,40.9,30.16,WSW,238,0.0,15.0,51,0.00,,---,0.00,VWS V13.01,2013-03-12 21:59:00,
2013-03-12 17:04:00,59.0,41.4,30.16,WNW,300,3.0,15.0,52,0.00,,---,0.00,VWS V13.01,2013-03-12 22:04:00,
2013-03-12 17:09:00,59.0,41.4,30.16,NW,326,0.0,6.0,52,0.00,,---,0.00,VWS V13.01,2013-03-12 22:09:00,
2013-03-12 17:14:00,59.0,40.9,30.16,SW,229,5.0,13.0,51,0.00,,---,0.00,VWS V13.01,2013-03-12 22:14:00,
2013-03-12 17:19:00,59.0,41.4,30.16,WNW,300,0.0,13.0,52,0.00,,---,0.00,VWS V13.01,2013-03-12 22:19:00,
2013-03-12 17:24:00,59.2,41.1,30.16,WNW,294,0.0,13.0,51,0.00,,---,0.00,VWS V13.01,2013-03-12 22:24:00,
2013-03-12 17:29:00,59.0,40.9,30.16,NNW,337,1.0,13.0,51,0.00,,---,0.00,VWS V13.01,2013-03-12 22:29:00,
2013-03-12 17:34:00,59.0,40.9,30.16,SW,234,4.0,13.0,51,0.00,,---,0.00,VWS V13.01,2013-03-12 22:34:00,
2013-03-12 17:40:00,59.0,40.4,30.16,NNW,344,6.0,12.0,50,0.00,,---,0.00,VWS V13.01,2013-03-12 22:40:00,
2013-03-12 17:45:00,58.9,40.3,30.16,NW,320,3.0,15.0,50,0.00,,---,0.00,VWS V13.01,2013-03-12 22:45:00,
2013-03-12 17:50:00,58.5,41.0,30.16,WNW,292,0.0,15.0,52,0.00,,---,0.00,VWS V13.01,2013-03-12 22:50:00,
2013-03-12 17:55:00,58.4,39.8,30.16,WNW,302,0.0,15.0,50,0.00,,---,0.00,VWS V13.01,2013-03-12 22:55:00,
2013-03-12 18:00:00,58.1,39.6,30.16,NW,308,1.0,15.0,50,0.00,,---,0.00,VWS V13.01,2013-03-12 23:00:00,
2013-03-12 18:05:00,57.8,40.3,30.16,NW,326,1.0,15.0,52,0.00,,---,0.00,VWS V13.01,2013-03-12 23:05:00,
2013-03-12 18:10:00,57.8,39.8,30.16,NW,325,0.0,9.0,51,0.00,,---,0.00,VWS V13.01,2013-03-12 23:10:00,
2013-03-12 18:15:00,57.7,40.2,30.16,North,355,0.0,9.0,52,0.00,,---,0.00,VWS V13.01,2013-03-12 23:15:00,
2013-03-12 18:20:00,57.5,40.0,30.16,SSW,209,0.0,9.0,52,0.00,,---,0.00,VWS V13.01,2013-03-12 23:20:00,
2013-03-12 18:25:00,57.3,40.3,30.16,WNW,293,0.0,12.0,53,0.00,,---,0.00,VWS V13.01,2013-03-12 23:25:00,
2013-03-12 18:30:00,57.0,40.1,30.17,NW,311,1.0,12.0,53,0.00,,---,0.00,VWS V13.01,2013-03-12 23:30:00,
2013-03-12 18:35:00,56.8,39.9,30.17,NNW,328,2.0,12.0,53,0.00,,---,0.00,VWS V13.01,2013-03-12 23:35:00,
2013-03-12 18:40:00,56.5,40.1,30.17,NW,318,0.0,6.0,54,0.00,,---,0.00,VWS V13.01,2013-03-12 23:40:00,
2013-03-12 18:45:00,56.0,40.1,30.17,WNW,300,0.0,6.0,55,0.00,,---,0.00,VWS V13.01,2013-03-12 23:45:00,
2013-03-12 18:50:00,55.7,39.8,30.17,WNW,288,0.0,10.0,55,0.00,,---,0.00,VWS V13.01,2013-03-12 23:50:00,
2013-03-12 18:55:00,55.4,39.0,30.17,West,277,0.0,10.0,54,0.00,,---,0.00,VWS V13.01,2013-03-12 23:55:00,
2013-03-12 19:00:00,55.0,38.7,30.18,West,267,0.0,10.0,54,0.00,,---,0.00,VWS V13.01,2013-03-13 00:00:00,
2013-03-12 19:05:00,54.8,38.0,30.18,NW,325,1.0,10.0,53,0.00,,---,0.00,VWS V13.01,2013-03-13 00:05:00,
2013-03-12 19:10:00,54.5,37.2,30.18,WNW,295,0.0,8.0,52,0.00,,---,0.00,VWS V13.01,2013-03-13 00:10:00,
2013-03-12 19:15:00,54.2,36.0,30.18,NW,311,0.0,8.0,50,0.00,,---,0.00,VWS V13.01,2013-03-13 00:15:00,
2013-03-12 19:21:00,53.9,35.7,30.18,WNW,303,1.0,9.0,50,0.00,,---,0.00,VWS V13.01,2013-03-13 00:21:00,
2013-03-12 19:26:00,53.7,35.5,30.19,NE,53,0.0,9.0,50,0.00,,---,0.00,VWS V13.01,2013-03-13 00:26:00,
2013-03-12 19:31:00,53.4,34.7,30.19,NW,313,0.0,9.0,49,0.00,,---,0.00,VWS V13.01,2013-03-13 00:31:00,
2013-03-12 19:36:00,53.3,33.6,30.19,North,355,0.0,1.0,47,0.00,,---,0.00,VWS V13.01,2013-03-13 00:36:00,
2013-03-12 19:41:00,53.1,33.4,30.19,NNW,340,0.0,3.0,47,0.00,,---,0.00,VWS V13.01,2013-03-13 00:41:00,
2013-03-12 19:46:00,52.7,33.0,30.20,NNW,341,1.0,4.0,47,0.00,,---,0.00,VWS V13.01,2013-03-13 00:46:00,
2013-03-12 19:52:00,52.3,32.7,30.20,NW,319,0.0,4.0,47,0.00,,---,0.00,VWS V13.01,2013-03-13 00:52:00,
2013-03-12 19:57:00,51.9,32.3,30.20,NNW,327,0.0,4.0,47,0.00,,---,0.00,VWS V13.01,2013-03-13 00:57:00,
2013-03-12 20:02:00,51.5,32.0,30.20,NNW,327,0.0,4.0,47,0.00,,---,0.00,VWS V13.01,2013-03-13 01:02:00,
2013-03-12 20:07:00,51.2,31.7,30.21,NNW,327,0.0,1.0,47,0.00,,---,0.00,VWS V13.01,2013-03-13 01:07:00,
2013-03-12 20:12:00,51.1,31.6,30.21,NNW,327,0.0,1.0,47,0.00,,---,0.00,VWS V13.01,2013-03-13 01:12:00,
2013-03-12 20:17:00,50.9,31.4,30.21,NNW,327,0.0,1.0,47,0.00,,---,0.00,VWS V13.01,2013-03-13 01:17:00,
2013-03-12 20:23:00,50.6,31.1,30.22,NW,326,0.0,1.0,47,0.00,,---,0.00,VWS V13.01,2013-03-13 01:23:00,
2013-03-12 20:28:00,50.5,31.0,30.22,NNW,338,0.0,1.0,47,0.00,,---,0.00,VWS V13.01,2013-03-13 01:28:00,
2013-03-12 20:33:00,50.4,31.0,30.22,NNW,338,0.0,1.0,47,0.00,,---,0.00,VWS V13.01,2013-03-13 01:33:00,
2013-03-12 20:38:00,50.3,31.4,30.22,NNW,334,0.0,1.0,48,0.00,,---,0.00,VWS V13.01,2013-03-13 01:38:00,
2013-03-12 20:43:00,50.1,30.7,30.23,NNW,334,0.0,2.0,47,0.00,,---,0.00,VWS V13.01,2013-03-13 01:43:00,
2013-03-12 20:48:00,50.0,30.6,30.23,NNW,334,0.0,2.0,47,0.00,,---,0.00,VWS V13.01,2013-03-13 01:48:00,
2013-03-12 20:53:00,49.6,31.2,30.23,NNW,335,0.0,2.0,49,0.00,,---,0.00,VWS V13.01,2013-03-13 01:53:00,
2013-03-12 20:58:00,48.7,31.4,30.23,NNW,334,0.0,2.0,51,0.00,,---,0.00,VWS V13.01,2013-03-13 01:58:00,
2013-03-12 21:03:00,48.0,31.2,30.24,NNW,335,0.0,2.0,52,0.00,,---,0.00,VWS V13.01,2013-03-13 02:03:00,
2013-03-12 21:08:00,47.6,32.2,30.23,NNW,334,0.0,1.0,55,0.00,,---,0.00,VWS V13.01,2013-03-13 02:08:00,
2013-03-12 21:13:00,47.3,32.4,30.24,NNW,334,0.0,1.0,56,0.00,,---,0.00,VWS V13.01,2013-03-13 02:13:00,
2013-03-12 21:19:00,47.3,33.3,30.24,NNW,334,0.0,1.0,58,0.00,,---,0.00,VWS V13.01,2013-03-13 02:19:00,
2013-03-12 21:24:00,47.3,33.3,30.24,NNW,334,0.0,1.0,58,0.00,,---,0.00,VWS V13.01,2013-03-13 02:24:00,
2013-03-12 21:29:00,47.3,32.8,30.25,NNW,336,0.0,1.0,57,0.00,,---,0.00,VWS V13.01,2013-03-13 02:29:00,
2013-03-12 21:34:00,47.0,33.4,30.25,NNW,334,0.0,1.0,59,0.00,,---,0.00,VWS V13.01,2013-03-13 02:34:00,
2013-03-12 21:39:00,46.9,33.3,30.25,NNW,334,0.0,0.0,59,0.00,,---,0.00,VWS V13.01,2013-03-13 02:39:00,
2013-03-12 21:44:00,47.0,34.3,30.26,NW,323,0.0,3.0,61,0.00,,---,0.00,VWS V13.01,2013-03-13 02:44:00,
2013-03-12 21:49:00,47.0,33.0,30.26,NW,323,0.0,3.0,58,0.00,,---,0.00,VWS V13.01,2013-03-13 02:49:00,
2013-03-12 21:54:00,46.8,33.2,30.26,NW,323,0.0,3.0,59,0.00,,---,0.00,VWS V13.01,2013-03-13 02:54:00,
2013-03-12 21:59:00,46.7,33.6,30.26,NW,322,0.0,3.0,60,0.00,,---,0.00,VWS V13.01,2013-03-13 02:59:00,
2013-03-12 22:04:00,46.5,33.8,30.27,NW,317,0.0,3.0,61,0.00,,---,0.00,VWS V13.01,2013-03-13 03:04:00,
2013-03-12 22:09:00,46.4,34.1,30.26,NW,317,0.0,2.0,62,0.00,,---,0.00,VWS V13.01,2013-03-13 03:09:00,
2013-03-12 22:14:00,46.3,34.0,30.27,NW,325,0.0,2.0,62,0.00,,---,0.00,VWS V13.01,2013-03-13 03:14:00,
2013-03-12 22:19:00,46.1,34.2,30.27,NW,323,2.0,4.0,63,0.00,,---,0.00,VWS V13.01,2013-03-13 03:19:00,
2013-03-12 22:24:00,46.0,34.5,30.27,WNW,287,0.0,5.0,64,0.00,,---,0.00,VWS V13.01,2013-03-13 03:24:00,
2013-03-12 22:29:00,46.0,34.5,30.28,NNW,333,0.0,5.0,64,0.00,,---,0.00,VWS V13.01,2013-03-13 03:29:00,
2013-03-12 22:34:00,46.0,34.9,30.28,NNW,330,0.0,5.0,65,0.00,,---,0.00,VWS V13.01,2013-03-13 03:34:00,
2013-03-12 22:40:00,45.8,35.1,30.28,NW,321,0.0,3.0,66,0.00,,---,0.00,VWS V13.01,2013-03-13 03:40:00,
2013-03-12 22:45:00,45.7,35.4,30.29,NW,321,0.0,3.0,67,0.00,,---,0.00,VWS V13.01,2013-03-13 03:45:00,
2013-03-12 22:50:00,45.7,35.8,30.29,NW,321,0.0,3.0,68,0.00,,---,0.00,VWS V13.01,2013-03-13 03:50:00,
2013-03-12 22:55:00,45.7,34.2,30.29,NNW,345,1.0,4.0,64,0.00,,---,0.00,VWS V13.01,2013-03-13 03:55:00,
2013-03-12 23:00:00,46.0,32.9,30.30,NNW,344,3.0,4.0,60,0.00,,---,0.00,VWS V13.01,2013-03-13 04:00:00,
2013-03-12 23:02:00,46.2,32.7,30.30,NNW,344,0.0,4.0,59,0.00,,---,0.00,VWS V13.01,2013-03-13 04:02:00,
2013-03-12 23:07:00,46.4,32.0,30.30,NNW,346,0.0,3.0,57,0.00,,---,0.00,VWS V13.01,2013-03-13 04:07:00,
2013-03-12 23:12:00,46.6,32.2,30.30,NNW,348,0.0,4.0,57,0.00,,---,0.00,VWS V13.01,2013-03-13 04:12:00,
2013-03-12 23:17:00,46.6,31.3,30.30,North,355,0.0,4.0,55,0.00,,---,0.00,VWS V13.01,2013-03-13 04:17:00,
2013-03-12 23:22:00,46.5,31.2,30.30,North,351,0.0,4.0,55,0.00,,---,0.00,VWS V13.01,2013-03-13 04:22:00,
2013-03-12 23:27:00,46.5,30.3,30.30,North,350,0.0,4.0,53,0.00,,---,0.00,VWS V13.01,2013-03-13 04:27:00,
2013-03-12 23:32:00,46.5,30.8,30.30,North,349,1.0,4.0,54,0.00,,---,0.00,VWS V13.01,2013-03-13 04:32:00,
2013-03-12 23:37:00,46.3,30.1,30.31,North,355,0.0,0.0,53,0.00,,---,0.00,VWS V13.01,2013-03-13 04:37:00,
2013-03-12 23:42:00,46.3,29.2,30.31,NNW,340,0.0,3.0,51,0.00,,---,0.00,VWS V13.01,2013-03-13 04:42:00,
2013-03-12 23:47:00,46.3,29.6,30.31,NNW,341,1.0,3.0,52,0.00,,---,0.00,VWS V13.01,2013-03-13 04:47:00,
2013-03-12 23:52:00,46.1,28.5,30.31,NNW,341,0.0,5.0,50,0.00,,---,0.00,VWS V13.01,2013-03-13 04:52:00,
2013-03-12 23:58:00,46.0,27.9,30.32,NNW,340,0.0,5.0,49,0.00,,---,0.00,VWS V13.01,2013-03-13 04:58:00,